Time,TemperatureF,DewpointF,PressureIn,WindDirection,WindDirectionDegrees,WindSpeedMPH,WindSpeedGustMPH,Humidity,HourlyPrecipIn,Conditions,Clouds,dailyrainin,SoftwareType,DateUTC
2013-02-25 00:00:00,32.8,27.9,27.52,ESE,113,0.0,2.0,82,0.00,,,0.00,WUHU216HW,2013-02-25 08:00:00,
2013-02-25 00:05:00,32.6,27.5,27.52,SSE,158,1.8,2.5,81,0.00,,,0.00,WUHU216HW,2013-02-25 08:05:00,
2013-02-25 00:10:00,32.8,27.5,27.52,SE,135,1.1,2.5,81,0.00,,,0.00,WUHU216HW,2013-02-25 08:10:00,
2013-02-25 00:15:00,32.6,27.5,27.52,ESE,113,2.5,2.5,81,0.00,,,0.00,WUHU216HW,2013-02-25 08:15:00,
2013-02-25 00:20:00,32.6,27.5,27.52,SE,135,1.1,2.5,81,0.00,,,0.00,WUHU216HW,2013-02-25 08:20:00,
2013-02-25 00:25:00,32.8,27.5,27.51,SE,135,1.8,1.8,81,0.00,,,0.00,WUHU216HW,2013-02-25 08:25:00,
2013-02-25 00:30:00,32.8,27.9,27.51,SE,135,2.2,3.1,82,0.00,,,0.00,WUHU216HW,2013-02-25 08:30:00,
2013-02-25 00:35:00,32.9,27.7,27.51,ESE,113,1.1,3.1,81,0.00,,,0.00,WUHU216HW,2013-02-25 08:35:00,
2013-02-25 00:40:00,33.1,27.6,27.51,ESE,113,2.5,2.5,80,0.00,,,0.00,WUHU216HW,2013-02-25 08:40:00,
2013-02-25 00:45:00,33.1,27.6,27.51,SE,135,0.9,2.7,80,0.00,,,0.00,WUHU216HW,2013-02-25 08:45:00,
2013-02-25 00:50:00,33.5,27.6,27.51,SE,135,3.4,3.4,79,0.00,,,0.00,WUHU216HW,2013-02-25 08:50:00,
2013-02-25 00:55:00,33.5,27.6,27.50,SE,135,2.5,3.4,79,0.00,,,0.00,WUHU216HW,2013-02-25 08:55:00,
2013-02-25 01:00:00,33.7,27.5,27.50,ESE,113,0.4,2.5,78,0.00,,,0.00,WUHU216HW,2013-02-25 09:00:00,
2013-02-25 01:05:00,33.8,27.6,27.50,SSE,158,3.4,4.7,78,0.00,,,0.00,WUHU216HW,2013-02-25 09:05:00,
2013-02-25 01:10:00,34.0,27.8,27.50,SSE,158,1.8,5.4,78,0.00,,,0.00,WUHU216HW,2013-02-25 09:10:00,
2013-02-25 01:15:00,34.2,27.6,27.50,ESE,113,3.6,5.4,77,0.00,,,0.00,WUHU216HW,2013-02-25 09:15:00,
2013-02-25 01:20:00,34.2,27.6,27.50,ESE,113,2.5,3.6,77,0.00,,,0.00,WUHU216HW,2013-02-25 09:20:00,
2013-02-25 01:25:00,34.2,27.6,27.49,SSW,203,1.8,3.6,77,0.00,,,0.00,WUHU216HW,2013-02-25 09:25:00,
2013-02-25 01:30:00,34.2,28.0,27.49,SSE,158,1.1,5.4,78,0.00,,,0.00,WUHU216HW,2013-02-25 09:30:00,
2013-02-25 01:35:00,34.2,28.0,27.49,SE,135,3.4,5.4,78,0.00,,,0.00,WUHU216HW,2013-02-25 09:35:00,
2013-02-25 01:40:00,34.2,27.6,27.48,South,180,1.6,3.6,77,0.00,,,0.00,WUHU216HW,2013-02-25 09:40:00,
2013-02-25 01:45:00,34.2,27.6,27.48,SE,135,3.4,3.4,77,0.00,,,0.00,WUHU216HW,2013-02-25 09:45:00,
2013-02-25 01:50:00,34.4,28.2,27.48,SE,135,1.1,3.4,78,0.00,,,0.00,WUHU216HW,2013-02-25 09:50:00,
2013-02-25 01:55:00,34.4,27.8,27.48,ESE,113,3.4,3.4,77,0.00,,,0.00,WUHU216HW,2013-02-25 09:55:00,
2013-02-25 02:00:00,34.4,27.8,27.48,SSE,158,2.0,3.4,77,0.00,,,0.00,WUHU216HW,2013-02-25 10:00:00,
2013-02-25 02:05:00,34.6,27.7,27.47,SSE,158,2.2,4.0,76,0.00,,,0.00,WUHU216HW,2013-02-25 10:05:00,
2013-02-25 02:10:00,34.6,27.7,27.47,South,180,1.8,4.0,76,0.00,,,0.00,WUHU216HW,2013-02-25 10:10:00,
2013-02-25 02:15:00,34.6,28.0,27.46,ESE,113,3.4,3.4,77,0.00,,,0.00,WUHU216HW,2013-02-25 10:15:00,
2013-02-25 02:20:00,34.6,27.7,27.46,ESE,113,2.5,3.4,76,0.00,,,0.00,WUHU216HW,2013-02-25 10:20:00,
2013-02-25 02:25:00,34.6,27.7,27.45,SSE,158,4.7,4.7,76,0.00,,,0.00,WUHU216HW,2013-02-25 10:25:00,
2013-02-25 02:30:00,34.7,27.9,27.45,SSE,158,2.5,4.7,76,0.00,,,0.00,WUHU216HW,2013-02-25 10:30:00,
2013-02-25 02:35:00,34.7,27.9,27.45,ESE,113,3.6,7.4,76,0.00,,,0.00,WUHU216HW,2013-02-25 10:35:00,
2013-02-25 02:40:00,34.7,27.9,27.45,SE,135,3.4,7.4,76,0.00,,,0.00,WUHU216HW,2013-02-25 10:40:00,
2013-02-25 02:45:00,34.7,27.9,27.45,SE,135,2.2,5.4,76,0.00,,,0.00,WUHU216HW,2013-02-25 10:45:00,
2013-02-25 02:50:00,34.7,27.9,27.44,SE,135,4.0,4.7,76,0.00,,,0.00,WUHU216HW,2013-02-25 10:50:00,
2013-02-25 02:55:00,34.7,27.5,27.44,East,90,3.4,5.4,75,0.00,,,0.00,WUHU216HW,2013-02-25 10:55:00,
2013-02-25 03:00:00,34.7,27.5,27.42,SE,135,3.4,5.4,75,0.00,,,0.00,WUHU216HW,2013-02-25 11:00:00,
2013-02-25 03:05:00,34.7,27.9,27.42,ESE,113,4.5,6.0,76,0.00,,,0.00,WUHU216HW,2013-02-25 11:05:00,
2013-02-25 03:10:00,34.7,27.5,27.42,SSW,203,2.0,6.0,75,0.00,,,0.00,WUHU216HW,2013-02-25 11:10:00,
2013-02-25 03:15:00,34.7,27.5,27.43,SE,135,1.6,5.1,75,0.00,,,0.00,WUHU216HW,2013-02-25 11:15:00,
2013-02-25 03:20:00,34.7,27.5,27.42,SSE,158,2.5,5.1,75,0.00,,,0.00,WUHU216HW,2013-02-25 11:20:00,
2013-02-25 03:25:00,34.7,27.2,27.42,ESE,113,3.4,3.6,74,0.00,,,0.00,WUHU216HW,2013-02-25 11:25:00,
2013-02-25 03:30:00,34.7,27.2,27.42,ESE,113,1.8,3.6,74,0.00,,,0.00,WUHU216HW,2013-02-25 11:30:00,
2013-02-25 03:35:00,34.9,27.7,27.42,SSW,203,3.1,3.4,75,0.00,,,0.00,WUHU216HW,2013-02-25 11:35:00,
2013-02-25 03:40:00,34.7,27.2,27.42,ESE,113,4.0,4.5,74,0.00,,,0.00,WUHU216HW,2013-02-25 11:40:00,
2013-02-25 03:45:00,34.9,27.4,27.41,ESE,113,2.5,5.4,74,0.00,,,0.00,WUHU216HW,2013-02-25 11:45:00,
2013-02-25 03:50:00,34.9,27.1,27.41,SE,135,2.9,5.4,73,0.00,,,0.00,WUHU216HW,2013-02-25 11:50:00,
2013-02-25 03:55:00,34.9,27.1,27.41,ESE,113,2.7,5.4,73,0.00,,,0.00,WUHU216HW,2013-02-25 11:55:00,
2013-02-25 04:00:00,34.9,27.1,27.41,ESE,113,4.0,4.0,73,0.00,,,0.00,WUHU216HW,2013-02-25 12:00:00,
2013-02-25 04:05:00,34.9,27.1,27.41,SSW,203,1.1,6.9,73,0.00,,,0.00,WUHU216HW,2013-02-25 12:05:00,
2013-02-25 04:10:00,34.9,27.1,27.41,SSE,158,3.1,6.9,73,0.00,,,0.00,WUHU216HW,2013-02-25 12:10:00,
2013-02-25 04:15:00,34.9,27.1,27.42,ESE,113,3.4,4.9,73,0.00,,,0.00,WUHU216HW,2013-02-25 12:15:00,
2013-02-25 04:20:00,34.9,27.1,27.41,ESE,113,1.3,3.4,73,0.00,,,0.00,WUHU216HW,2013-02-25 12:20:00,
2013-02-25 04:25:00,34.9,27.1,27.41,ESE,113,1.1,2.5,73,0.00,,,0.00,WUHU216HW,2013-02-25 12:25:00,
2013-02-25 04:30:00,34.9,27.1,27.41,South,180,3.6,3.6,73,0.00,,,0.00,WUHU216HW,2013-02-25 12:30:00,
2013-02-25 04:35:00,34.9,28.1,27.42,SE,135,2.5,3.6,76,0.00,,,0.00,WUHU216HW,2013-02-25 12:35:00,
2013-02-25 04:40:00,34.7,28.8,27.42,South,180,0.4,2.5,79,0.00,,,0.00,WUHU216HW,2013-02-25 12:40:00,
2013-02-25 04:45:00,34.2,29.2,27.41,SE,135,2.5,4.7,82,0.00,,,0.00,WUHU216HW,2013-02-25 12:45:00,
2013-02-25 04:50:00,33.8,29.7,27.41,SSW,203,0.9,4.7,85,0.00,,,0.00,WUHU216HW,2013-02-25 12:50:00,
2013-02-25 04:55:00,33.5,30.2,27.41,SE,135,2.7,4.7,88,0.00,,,0.00,WUHU216HW,2013-02-25 12:55:00,
2013-02-25 05:00:00,33.1,30.3,27.41,South,180,2.5,3.1,89,0.00,,,0.00,WUHU216HW,2013-02-25 13:00:00,
2013-02-25 05:05:00,32.8,30.2,27.41,SSE,158,1.1,2.5,90,0.00,,,0.00,WUHU216HW,2013-02-25 13:05:00,
2013-02-25 05:10:00,32.8,30.2,27.40,SSE,158,0.4,2.5,90,0.00,,,0.00,WUHU216HW,2013-02-25 13:10:00,
2013-02-25 05:15:00,32.6,30.5,27.40,SSW,203,1.6,2.0,92,0.00,,,0.00,WUHU216HW,2013-02-25 13:15:00,
2013-02-25 05:20:00,32.4,30.3,27.40,ESE,113,1.1,1.8,92,0.00,,,0.00,WUHU216HW,2013-02-25 13:20:00,
2013-02-25 05:25:00,32.4,30.1,27.40,SE,135,0.4,1.8,91,0.00,,,0.00,WUHU216HW,2013-02-25 13:25:00,
2013-02-25 05:30:00,32.4,30.1,27.39,SE,135,1.1,2.5,91,0.00,,,0.00,WUHU216HW,2013-02-25 13:30:00,
2013-02-25 05:35:00,32.4,30.3,27.39,SE,135,2.2,2.5,92,0.00,,,0.00,WUHU216HW,2013-02-25 13:35:00,
2013-02-25 05:40:00,32.4,30.3,27.39,SSE,158,1.1,2.2,92,0.00,,,0.00,WUHU216HW,2013-02-25 13:40:00,
2013-02-25 05:45:00,32.2,30.2,27.39,SE,135,1.3,1.8,92,0.00,,,0.00,WUHU216HW,2013-02-25 13:45:00,
2013-02-25 05:50:00,32.2,30.2,27.39,SE,135,1.8,1.8,92,0.00,,,0.00,WUHU216HW,2013-02-25 13:50:00,
2013-02-25 05:55:00,32.0,30.1,27.39,SE,135,0.9,1.8,92,0.00,,,0.00,WUHU216HW,2013-02-25 13:55:00,
2013-02-25 06:01:00,32.0,30.1,27.39,SE,135,1.1,1.8,92,0.00,,,0.00,WUHU216HW,2013-02-25 14:01:00,
2013-02-25 06:06:00,32.0,30.1,27.38,SE,135,0.0,1.8,92,0.00,,,0.00,WUHU216HW,2013-02-25 14:06:00,
2013-02-25 06:11:00,32.0,30.2,27.38,SE,135,0.0,0.9,93,0.00,,,0.00,WUHU216HW,2013-02-25 14:11:00,
2013-02-25 06:16:00,32.0,30.2,27.38,SE,135,0.0,1.6,93,0.00,,,0.00,WUHU216HW,2013-02-25 14:16:00,
2013-02-25 06:21:00,32.0,30.2,27.38,SE,135,0.0,1.6,93,0.00,,,0.00,WUHU216HW,2013-02-25 14:21:00,
2013-02-25 06:26:00,32.0,30.1,27.38,SE,135,0.0,0.0,92,0.00,,,0.00,WUHU216HW,2013-02-25 14:26:00,
2013-02-25 06:31:00,32.0,30.1,27.39,SE,135,0.0,0.0,92,0.00,,,0.00,WUHU216HW,2013-02-25 14:31:00,
2013-02-25 06:36:00,32.0,30.1,27.38,SE,135,0.0,0.0,92,0.00,,,0.00,WUHU216HW,2013-02-25 14:36:00,
2013-02-25 06:41:00,32.0,30.1,27.39,SE,135,0.0,0.0,92,0.00,,,0.00,WUHU216HW,2013-02-25 14:41:00,
2013-02-25 06:46:00,32.0,30.1,27.38,SE,135,0.0,0.0,92,0.00,,,0.00,WUHU216HW,2013-02-25 14:46:00,
2013-02-25 06:51:00,32.0,30.1,27.38,SE,135,0.0,0.0,92,0.00,,,0.00,WUHU216HW,2013-02-25 14:51:00,
2013-02-25 06:56:00,32.0,30.1,27.38,SE,135,0.0,0.0,92,0.00,,,0.00,WUHU216HW,2013-02-25 14:56:00,
2013-02-25 07:01:00,32.0,30.1,27.39,SE,135,0.0,0.0,92,0.00,,,0.00,WUHU216HW,2013-02-25 15:01:00,
2013-02-25 07:06:00,32.0,30.1,27.38,SE,135,0.0,0.0,92,0.00,,,0.00,WUHU216HW,2013-02-25 15:06:00,
2013-02-25 07:11:00,32.0,30.1,27.38,SE,135,0.0,0.0,92,0.00,,,0.00,WUHU216HW,2013-02-25 15:11:00,
2013-02-25 07:16:00,32.0,30.1,27.38,SE,135,0.0,0.0,92,0.00,,,0.00,WUHU216HW,2013-02-25 15:16:00,
2013-02-25 07:21:00,32.0,30.1,27.38,SE,135,0.0,0.0,92,0.00,,,0.00,WUHU216HW,2013-02-25 15:21:00,
2013-02-25 07:26:00,32.0,30.1,27.38,SE,135,0.0,0.0,92,0.00,,,0.00,WUHU216HW,2013-02-25 15:26:00,
2013-02-25 07:31:00,32.0,30.1,27.38,SE,135,0.0,0.0,92,0.00,,,0.00,WUHU216HW,2013-02-25 15:31:00,
2013-02-25 07:36:00,32.0,30.1,27.38,SE,135,0.0,0.0,92,0.00,,,0.00,WUHU216HW,2013-02-25 15:36:00,
2013-02-25 07:41:00,32.0,30.2,27.38,SE,135,0.0,0.0,93,0.00,,,0.00,WUHU216HW,2013-02-25 15:41:00,
2013-02-25 07:46:00,32.0,30.2,27.38,SE,135,0.0,0.0,93,0.00,,,0.00,WUHU216HW,2013-02-25 15:46:00,
2013-02-25 07:51:00,32.0,30.2,27.38,SE,135,0.0,0.0,93,0.00,,,0.00,WUHU216HW,2013-02-25 15:51:00,
2013-02-25 07:56:00,32.2,30.4,27.38,SE,135,0.0,0.0,93,0.00,,,0.00,WUHU216HW,2013-02-25 15:56:00,
2013-02-25 08:01:00,32.2,30.4,27.38,SE,135,0.0,0.0,93,0.00,,,0.00,WUHU216HW,2013-02-25 16:01:00,
2013-02-25 08:06:00,32.4,30.6,27.38,SE,135,0.0,0.0,93,0.00,,,0.00,WUHU216HW,2013-02-25 16:06:00,
2013-02-25 08:11:00,32.4,30.6,27.39,SE,135,0.0,0.0,93,0.00,,,0.00,WUHU216HW,2013-02-25 16:11:00,
2013-02-25 08:16:00,32.6,30.8,27.39,SE,135,0.0,0.0,93,0.00,,,0.00,WUHU216HW,2013-02-25 16:16:00,
2013-02-25 08:21:00,32.8,30.7,27.38,SE,135,0.0,0.0,92,0.00,,,0.00,WUHU216HW,2013-02-25 16:21:00,
2013-02-25 08:26:00,32.8,30.7,27.39,SE,135,0.0,0.0,92,0.00,,,0.00,WUHU216HW,2013-02-25 16:26:00,
2013-02-25 08:31:00,32.8,30.7,27.38,SE,135,0.0,0.0,92,0.00,,,0.00,WUHU216HW,2013-02-25 16:31:00,
2013-02-25 08:36:00,32.8,30.7,27.38,SE,135,0.0,0.0,92,0.00,,,0.00,WUHU216HW,2013-02-25 16:36:00,
2013-02-25 08:41:00,32.9,30.9,27.39,SE,135,2.2,2.2,92,0.00,,,0.00,WUHU216HW,2013-02-25 16:41:00,
2013-02-25 08:46:00,32.8,30.7,27.39,SE,135,2.0,3.6,92,0.00,,,0.00,WUHU216HW,2013-02-25 16:46:00,
2013-02-25 08:51:00,32.9,30.9,27.39,SE,135,0.9,3.6,92,0.00,,,0.00,WUHU216HW,2013-02-25 16:51:00,
2013-02-25 08:56:00,32.9,30.9,27.39,SE,135,0.0,2.9,92,0.00,,,0.00,WUHU216HW,2013-02-25 16:56:00,
2013-02-25 09:01:00,33.1,31.1,27.39,SE,135,2.2,3.6,92,0.00,,,0.00,WUHU216HW,2013-02-25 17:01:00,
2013-02-25 09:06:00,32.9,31.2,27.39,SE,135,2.0,3.6,93,0.00,,,0.00,WUHU216HW,2013-02-25 17:06:00,
2013-02-25 09:11:00,33.1,31.3,27.39,SE,135,2.0,3.6,93,0.00,,,0.00,WUHU216HW,2013-02-25 17:11:00,
2013-02-25 09:16:00,33.3,31.4,27.39,SE,135,2.5,5.6,93,0.00,,,0.00,WUHU216HW,2013-02-25 17:16:00,
2013-02-25 09:21:00,33.3,31.4,27.39,SE,135,2.7,5.6,93,0.00,,,0.00,WUHU216HW,2013-02-25 17:21:00,
2013-02-25 09:26:00,33.5,31.6,27.38,SE,135,3.4,5.4,93,0.00,,,0.00,WUHU216HW,2013-02-25 17:26:00,
2013-02-25 09:31:00,33.5,31.6,27.39,SE,135,2.5,4.7,93,0.00,,,0.00,WUHU216HW,2013-02-25 17:31:00,
2013-02-25 09:36:00,33.8,32.0,27.39,SSE,158,4.9,4.9,93,0.00,,,0.00,WUHU216HW,2013-02-25 17:36:00,
2013-02-25 09:41:00,33.8,32.0,27.39,SSE,158,3.4,6.9,93,0.00,,,0.00,WUHU216HW,2013-02-25 17:41:00,
2013-02-25 09:46:00,33.8,32.0,27.39,SW,225,4.3,7.6,93,0.00,,,0.00,WUHU216HW,2013-02-25 17:46:00,
2013-02-25 09:51:00,34.0,31.9,27.39,SSW,203,2.9,7.6,92,0.00,,,0.00,WUHU216HW,2013-02-25 17:51:00,
2013-02-25 09:56:00,34.2,32.0,27.39,SSW,203,5.1,6.3,92,0.00,,,0.00,WUHU216HW,2013-02-25 17:56:00,
2013-02-25 10:01:00,34.4,32.2,27.39,SW,225,4.9,5.8,92,0.00,,,0.00,WUHU216HW,2013-02-25 18:01:00,
2013-02-25 10:06:00,34.6,32.1,27.39,SSW,203,3.4,5.8,91,0.00,,,0.00,WUHU216HW,2013-02-25 18:06:00,
2013-02-25 10:11:00,34.4,32.0,27.39,SW,225,4.3,6.7,91,0.00,,,0.00,WUHU216HW,2013-02-25 18:11:00,
2013-02-25 10:16:00,34.6,32.1,27.39,SSW,203,6.9,6.9,91,0.00,,,0.00,WUHU216HW,2013-02-25 18:16:00,
2013-02-25 10:21:00,34.7,32.3,27.39,SW,225,2.5,6.9,91,0.00,,,0.00,WUHU216HW,2013-02-25 18:21:00,
2013-02-25 10:26:00,34.7,32.0,27.39,SSW,203,7.8,7.8,90,0.00,,,0.00,WUHU216HW,2013-02-25 18:26:00,
2013-02-25 10:31:00,34.9,32.2,27.40,South,180,2.9,7.8,90,0.00,,,0.00,WUHU216HW,2013-02-25 18:31:00,
2013-02-25 10:36:00,34.9,32.0,27.40,SSW,203,3.4,6.0,89,0.00,,,0.00,WUHU216HW,2013-02-25 18:36:00,
2013-02-25 10:41:00,34.9,32.0,27.39,SW,225,4.0,6.0,89,0.00,,,0.00,WUHU216HW,2013-02-25 18:41:00,
2013-02-25 10:46:00,35.1,32.1,27.39,SW,225,2.5,6.3,89,0.01,,,0.00,WUHU216HW,2013-02-25 18:46:00,
2013-02-25 10:51:00,35.6,32.4,27.40,SW,225,2.5,6.3,88,0.02,,,0.00,WUHU216HW,2013-02-25 18:51:00,
2013-02-25 10:56:00,35.8,32.6,27.40,SSW,203,3.1,6.7,88,0.02,,,0.01,WUHU216HW,2013-02-25 18:56:00,
2013-02-25 11:01:00,36.4,32.8,27.40,SW,225,6.3,7.6,87,0.03,,,0.02,WUHU216HW,2013-02-25 19:01:00,
2013-02-25 11:06:00,36.4,32.8,27.40,SSW,203,3.4,7.6,87,0.04,,,0.03,WUHU216HW,2013-02-25 19:06:00,
2013-02-25 11:11:00,36.7,33.1,27.40,SSW,203,1.3,6.0,87,0.05,,,0.05,WUHU216HW,2013-02-25 19:11:00,
2013-02-25 11:16:00,37.1,33.2,27.40,WSW,248,4.3,6.0,86,0.06,,,0.05,WUHU216HW,2013-02-25 19:16:00,
2013-02-25 11:21:00,37.6,33.8,27.40,SSW,203,2.7,4.7,86,0.06,,,0.05,WUHU216HW,2013-02-25 19:21:00,
2013-02-25 11:26:00,38.5,34.1,27.40,SW,225,3.4,5.6,84,0.07,,,0.07,WUHU216HW,2013-02-25 19:26:00,
2013-02-25 11:31:00,38.5,33.5,27.40,SSW,203,5.6,5.6,82,0.08,,,0.07,WUHU216HW,2013-02-25 19:31:00,
2013-02-25 11:36:00,38.5,33.2,27.40,SW,225,3.8,5.6,81,0.09,,,0.09,WUHU216HW,2013-02-25 19:36:00,
2013-02-25 11:41:00,39.1,33.8,27.40,SW,225,2.9,3.8,81,0.09,,,0.10,WUHU216HW,2013-02-25 19:41:00,
2013-02-25 11:46:00,38.7,33.4,27.40,SSE,158,2.2,6.9,81,0.09,,,0.10,WUHU216HW,2013-02-25 19:46:00,
2013-02-25 11:51:00,39.6,34.0,27.41,South,180,1.1,6.9,80,0.09,,,0.11,WUHU216HW,2013-02-25 19:51:00,
2013-02-25 11:57:00,39.4,33.9,27.41,SW,225,6.5,6.5,80,0.09,,,0.11,WUHU216HW,2013-02-25 19:57:00,
2013-02-25 12:02:00,39.2,33.7,27.41,SW,225,2.5,6.5,80,0.08,,,0.12,WUHU216HW,2013-02-25 20:02:00,
2013-02-25 12:07:00,38.9,33.3,27.41,SSW,203,3.1,6.3,80,0.08,,,0.12,WUHU216HW,2013-02-25 20:07:00,
2013-02-25 12:12:00,38.5,32.9,27.40,SSW,203,3.4,6.3,80,0.07,,,0.13,WUHU216HW,2013-02-25 20:12:00,
2013-02-25 12:17:00,38.5,33.2,27.41,SW,225,5.1,6.0,81,0.07,,,0.13,WUHU216HW,2013-02-25 20:17:00,
2013-02-25 12:22:00,38.9,33.3,27.41,SSW,203,4.3,5.1,80,0.07,,,0.13,WUHU216HW,2013-02-25 20:22:00,
2013-02-25 12:27:00,39.1,33.5,27.41,SW,225,3.8,4.7,80,0.07,,,0.14,WUHU216HW,2013-02-25 20:27:00,
2013-02-25 12:32:00,38.7,33.1,27.41,SSW,203,2.9,4.7,80,0.06,,,0.14,WUHU216HW,2013-02-25 20:32:00,
2013-02-25 12:37:00,38.3,32.8,27.41,SW,225,5.6,7.6,80,0.05,,,0.14,WUHU216HW,2013-02-25 20:37:00,
2013-02-25 12:42:00,38.5,32.9,27.41,SSW,203,4.5,8.7,80,0.05,,,0.14,WUHU216HW,2013-02-25 20:42:00,
2013-02-25 12:47:00,38.7,33.1,27.41,SW,225,3.8,8.7,80,0.06,,,0.16,WUHU216HW,2013-02-25 20:47:00,
2013-02-25 12:52:00,39.1,33.1,27.41,SSW,203,3.4,7.6,79,0.05,,,0.16,WUHU216HW,2013-02-25 20:52:00,
2013-02-25 12:57:00,39.1,33.1,27.40,SW,225,5.4,7.6,79,0.05,,,0.17,WUHU216HW,2013-02-25 20:57:00,
2013-02-25 13:02:00,39.4,33.5,27.40,SSW,203,4.0,6.3,79,0.05,,,0.17,WUHU216HW,2013-02-25 21:02:00,
2013-02-25 13:07:00,39.6,33.3,27.40,SW,225,6.3,6.3,78,0.06,,,0.18,WUHU216HW,2013-02-25 21:07:00,
2013-02-25 13:12:00,39.8,33.1,27.40,SW,225,6.3,9.2,77,0.05,,,0.18,WUHU216HW,2013-02-25 21:12:00,
2013-02-25 13:17:00,39.8,33.1,27.40,South,180,2.9,9.2,77,0.06,,,0.19,WUHU216HW,2013-02-25 21:17:00,
2013-02-25 13:22:00,40.0,33.3,27.40,SW,225,4.5,6.3,77,0.05,,,0.19,WUHU216HW,2013-02-25 21:22:00,
2013-02-25 13:27:00,40.1,32.8,27.40,SSW,203,6.9,6.9,75,0.06,,,0.19,WUHU216HW,2013-02-25 21:27:00,
2013-02-25 13:32:00,40.7,33.3,27.40,SSW,203,4.9,6.9,75,0.05,,,0.20,WUHU216HW,2013-02-25 21:32:00,
2013-02-25 13:37:00,40.5,32.9,27.40,SSW,203,6.3,7.6,74,0.05,,,0.20,WUHU216HW,2013-02-25 21:37:00,
2013-02-25 13:42:00,40.7,32.7,27.40,SSW,203,6.9,7.6,73,0.05,,,0.21,WUHU216HW,2013-02-25 21:42:00,
2013-02-25 13:47:00,40.7,32.1,27.40,WSW,248,6.9,7.6,71,0.05,,,0.21,WUHU216HW,2013-02-25 21:47:00,
2013-02-25 13:52:00,41.0,32.4,27.40,SW,225,4.0,7.6,71,0.05,,,0.21,WUHU216HW,2013-02-25 21:52:00,
2013-02-25 13:57:00,41.2,32.2,27.40,SSW,203,6.7,6.7,70,0.05,,,0.22,WUHU216HW,2013-02-25 21:57:00,
2013-02-25 14:02:00,41.4,31.7,27.40,WSW,248,5.8,6.9,68,0.05,,,0.22,WUHU216HW,2013-02-25 22:02:00,
2013-02-25 14:07:00,41.4,31.2,27.40,SSW,203,4.3,6.9,67,0.04,,,0.22,WUHU216HW,2013-02-25 22:07:00,
2013-02-25 14:12:00,41.6,31.4,27.40,SSW,203,9.4,9.4,67,0.04,,,0.23,WUHU216HW,2013-02-25 22:12:00,
2013-02-25 14:17:00,41.2,31.1,27.40,SSW,203,4.0,9.4,67,0.04,,,0.23,WUHU216HW,2013-02-25 22:17:00,
2013-02-25 14:22:00,41.4,31.2,27.40,SSW,203,5.4,8.5,67,0.04,,,0.23,WUHU216HW,2013-02-25 22:22:00,
2013-02-25 14:27:00,41.6,31.4,27.40,SW,225,4.3,8.5,67,0.04,,,0.24,WUHU216HW,2013-02-25 22:27:00,
2013-02-25 14:32:00,41.8,31.6,27.40,SW,225,3.1,8.5,67,0.04,,,0.24,WUHU216HW,2013-02-25 22:32:00,
2013-02-25 14:37:00,41.6,31.4,27.40,SSW,203,3.1,5.4,67,0.03,,,0.24,WUHU216HW,2013-02-25 22:37:00,
2013-02-25 14:42:00,41.8,30.1,27.40,WSW,248,9.8,9.8,63,0.03,,,0.24,WUHU216HW,2013-02-25 22:42:00,
2013-02-25 14:47:00,41.4,29.0,27.40,SW,225,7.6,9.8,61,0.03,,,0.24,WUHU216HW,2013-02-25 22:47:00,
2013-02-25 14:52:00,41.2,29.5,27.40,WSW,248,2.9,9.8,63,0.04,,,0.25,WUHU216HW,2013-02-25 22:52:00,
2013-02-25 14:57:00,41.2,29.2,27.40,WSW,248,4.0,5.6,62,0.03,,,0.25,WUHU216HW,2013-02-25 22:57:00,
2013-02-25 15:02:00,41.0,29.4,27.41,SW,225,3.4,7.4,63,0.03,,,0.25,WUHU216HW,2013-02-25 23:02:00,
2013-02-25 15:07:00,41.0,29.0,27.41,SSW,203,4.9,7.4,62,0.02,,,0.25,WUHU216HW,2013-02-25 23:07:00,
2013-02-25 15:12:00,41.0,29.0,27.41,SW,225,3.4,6.9,62,0.02,,,0.25,WUHU216HW,2013-02-25 23:12:00,
2013-02-25 15:17:00,41.0,29.4,27.41,SW,225,3.4,6.9,63,0.02,,,0.25,WUHU216HW,2013-02-25 23:17:00,
2013-02-25 15:22:00,40.7,29.1,27.41,WSW,248,4.9,6.5,63,0.01,,,0.25,WUHU216HW,2013-02-25 23:22:00,
2013-02-25 15:27:00,40.9,28.8,27.41,WSW,248,5.4,6.5,62,0.01,,,0.25,WUHU216HW,2013-02-25 23:27:00,
2013-02-25 15:32:00,41.2,29.5,27.41,SW,225,5.4,5.4,63,0.01,,,0.25,WUHU216HW,2013-02-25 23:32:00,
2013-02-25 15:37:00,41.4,29.3,27.41,SW,225,3.1,6.7,62,0.02,,,0.26,WUHU216HW,2013-02-25 23:37:00,
2013-02-25 15:42:00,41.0,29.4,27.41,SSW,203,2.5,6.7,63,0.02,,,0.26,WUHU216HW,2013-02-25 23:42:00,
2013-02-25 15:47:00,40.7,28.3,27.42,WSW,248,4.5,6.0,61,0.01,,,0.26,WUHU216HW,2013-02-25 23:47:00,
2013-02-25 15:52:00,40.3,28.3,27.42,SW,225,4.0,6.0,62,0.01,,,0.26,WUHU216HW,2013-02-25 23:52:00,
2013-02-25 15:57:00,40.1,28.5,27.42,SW,225,2.7,5.4,63,0.01,,,0.26,WUHU216HW,2013-02-25 23:57:00,
2013-02-25 16:02:00,40.0,28.4,27.42,SW,225,1.8,4.5,63,0.01,,,0.26,WUHU216HW,2013-02-26 00:02:00,
2013-02-25 16:07:00,39.6,28.0,27.42,SW,225,3.8,7.6,63,0.01,,,0.26,WUHU216HW,2013-02-26 00:07:00,
2013-02-25 16:12:00,39.6,28.0,27.42,SSW,203,2.7,7.6,63,0.01,,,0.26,WUHU216HW,2013-02-26 00:12:00,
2013-02-25 16:17:00,39.4,27.8,27.42,SW,225,3.1,6.5,63,0.01,,,0.26,WUHU216HW,2013-02-26 00:17:00,
2013-02-25 16:22:00,39.2,27.6,27.43,SW,225,4.5,6.3,63,0.01,,,0.26,WUHU216HW,2013-02-26 00:22:00,
2013-02-25 16:27:00,39.2,27.6,27.42,SW,225,6.0,6.0,63,0.01,,,0.26,WUHU216HW,2013-02-26 00:27:00,
2013-02-25 16:32:00,39.2,27.6,27.43,WSW,248,3.1,6.0,63,0.01,,,0.26,WUHU216HW,2013-02-26 00:32:00,
2013-02-25 16:37:00,39.1,27.5,27.42,SW,225,2.5,4.0,63,0.00,,,0.26,WUHU216HW,2013-02-26 00:37:00,
2013-02-25 16:42:00,38.9,27.3,27.43,SW,225,4.3,4.3,63,0.00,,,0.26,WUHU216HW,2013-02-26 00:42:00,
2013-02-25 16:47:00,39.1,27.5,27.42,SW,225,5.8,6.0,63,0.00,,,0.26,WUHU216HW,2013-02-26 00:47:00,
2013-02-25 16:52:00,38.9,27.3,27.43,SW,225,5.4,6.0,63,0.00,,,0.26,WUHU216HW,2013-02-26 00:52:00,
2013-02-25 16:57:00,38.9,27.3,27.42,WSW,248,3.1,5.4,63,0.00,,,0.26,WUHU216HW,2013-02-26 00:57:00,
2013-02-25 17:02:00,38.7,27.1,27.42,SW,225,3.1,6.7,63,0.00,,,0.26,WUHU216HW,2013-02-26 01:02:00,
2013-02-25 17:07:00,38.5,26.9,27.43,SW,225,2.0,6.7,63,0.00,,,0.26,WUHU216HW,2013-02-26 01:07:00,
2013-02-25 17:12:00,38.5,27.4,27.43,SW,225,2.2,4.7,64,0.00,,,0.26,WUHU216HW,2013-02-26 01:12:00,
2013-02-25 17:17:00,38.3,27.2,27.43,SW,225,2.9,5.4,64,0.00,,,0.26,WUHU216HW,2013-02-26 01:17:00,
2013-02-25 17:22:00,38.5,27.7,27.43,WSW,248,2.9,5.4,65,0.00,,,0.26,WUHU216HW,2013-02-26 01:22:00,
2013-02-25 17:27:00,38.3,26.8,27.43,SW,225,3.8,4.5,63,0.00,,,0.26,WUHU216HW,2013-02-26 01:27:00,
2013-02-25 17:32:00,38.3,27.2,27.43,SW,225,5.4,5.4,64,0.00,,,0.26,WUHU216HW,2013-02-26 01:32:00,
2013-02-25 17:37:00,38.5,27.4,27.43,SW,225,3.8,6.0,64,0.00,,,0.26,WUHU216HW,2013-02-26 01:37:00,
2013-02-25 17:42:00,38.3,27.2,27.44,SW,225,2.9,6.0,64,0.00,,,0.26,WUHU216HW,2013-02-26 01:42:00,
2013-02-25 17:47:00,38.3,26.8,27.44,SSW,203,4.0,4.0,63,0.00,,,0.26,WUHU216HW,2013-02-26 01:47:00,
2013-02-25 17:52:00,38.0,26.5,27.44,WSW,248,4.0,4.9,63,0.00,,,0.26,WUHU216HW,2013-02-26 01:52:00,
2013-02-25 17:57:00,38.0,26.1,27.45,WSW,248,6.9,6.9,62,0.00,,,0.26,WUHU216HW,2013-02-26 01:57:00,
2013-02-25 18:02:00,38.0,25.8,27.45,WSW,248,4.0,6.9,61,0.00,,,0.26,WUHU216HW,2013-02-26 02:02:00,
2013-02-25 18:07:00,37.8,25.9,27.45,WSW,248,4.0,4.3,62,0.00,,,0.26,WUHU216HW,2013-02-26 02:07:00,
2013-02-25 18:12:00,37.8,25.6,27.45,WSW,248,3.1,6.3,61,0.00,,,0.26,WUHU216HW,2013-02-26 02:12:00,
2013-02-25 18:17:00,37.8,25.9,27.45,WSW,248,1.8,6.3,62,0.00,,,0.26,WUHU216HW,2013-02-26 02:17:00,
2013-02-25 18:22:00,37.6,25.7,27.46,SW,225,3.8,4.3,62,0.00,,,0.26,WUHU216HW,2013-02-26 02:22:00,
2013-02-25 18:27:00,37.6,25.7,27.45,SW,225,2.5,5.1,62,0.00,,,0.26,WUHU216HW,2013-02-26 02:27:00,
2013-02-25 18:32:00,37.4,24.8,27.46,WSW,248,4.9,5.1,60,0.00,,,0.26,WUHU216HW,2013-02-26 02:32:00,
2013-02-25 18:37:00,37.4,24.8,27.46,WSW,248,3.4,4.9,60,0.00,,,0.26,WUHU216HW,2013-02-26 02:37:00,
2013-02-25 18:42:00,37.4,24.8,27.46,WNW,293,2.7,5.8,60,0.00,,,0.26,WUHU216HW,2013-02-26 02:42:00,
2013-02-25 18:47:00,37.4,24.8,27.47,SW,225,6.7,6.7,60,0.00,,,0.26,WUHU216HW,2013-02-26 02:47:00,
2013-02-25 18:52:00,37.3,24.7,27.47,WSW,248,5.4,6.7,60,0.00,,,0.26,WUHU216HW,2013-02-26 02:52:00,
2013-02-25 18:57:00,37.1,24.5,27.47,SW,225,4.5,6.7,60,0.00,,,0.26,WUHU216HW,2013-02-26 02:57:00,
2013-02-25 19:02:00,37.1,24.5,27.48,WSW,248,1.6,4.7,60,0.00,,,0.26,WUHU216HW,2013-02-26 03:02:00,
2013-02-25 19:07:00,36.9,24.4,27.48,SW,225,3.6,4.9,60,0.00,,,0.26,WUHU216HW,2013-02-26 03:07:00,
2013-02-25 19:12:00,36.7,24.6,27.48,WSW,248,2.9,4.9,61,0.00,,,0.26,WUHU216HW,2013-02-26 03:12:00,
2013-02-25 19:17:00,36.7,24.9,27.48,WSW,248,3.1,4.7,62,0.00,,,0.26,WUHU216HW,2013-02-26 03:17:00,
2013-02-25 19:22:00,36.7,24.9,27.48,SSW,203,3.1,4.7,62,0.00,,,0.26,WUHU216HW,2013-02-26 03:22:00,
2013-02-25 19:27:00,36.5,24.8,27.48,SW,225,2.7,4.5,62,0.00,,,0.26,WUHU216HW,2013-02-26 03:27:00,
2013-02-25 19:32:00,36.4,24.6,27.48,SW,225,4.0,5.1,62,0.00,,,0.26,WUHU216HW,2013-02-26 03:32:00,
2013-02-25 19:37:00,36.4,24.6,27.48,WSW,248,5.6,6.0,62,0.00,,,0.26,WUHU216HW,2013-02-26 03:37:00,
2013-02-25 19:42:00,36.4,24.6,27.48,SSW,203,4.0,6.0,62,0.00,,,0.26,WUHU216HW,2013-02-26 03:42:00,
2013-02-25 19:47:00,36.4,24.6,27.49,SW,225,3.4,4.7,62,0.00,,,0.26,WUHU216HW,2013-02-26 03:47:00,
2013-02-25 19:53:00,36.0,24.3,27.49,West,270,5.6,5.6,62,0.00,,,0.26,WUHU216HW,2013-02-26 03:53:00,
2013-02-25 19:58:00,36.0,25.0,27.49,SSW,203,3.1,5.6,64,0.00,,,0.26,WUHU216HW,2013-02-26 03:58:00,
2013-02-25 20:03:00,35.8,24.5,27.49,SW,225,5.4,5.4,63,0.00,,,0.26,WUHU216HW,2013-02-26 04:03:00,
2013-02-25 20:08:00,35.6,23.9,27.49,SW,225,4.0,7.4,62,0.00,,,0.26,WUHU216HW,2013-02-26 04:08:00,
2013-02-25 20:13:00,35.6,23.9,27.50,SSW,203,2.5,7.6,62,0.00,,,0.26,WUHU216HW,2013-02-26 04:13:00,
2013-02-25 20:18:00,35.3,23.6,27.50,SW,225,3.8,7.6,62,0.00,,,0.26,WUHU216HW,2013-02-26 04:18:00,
2013-02-25 20:23:00,35.1,23.4,27.50,WSW,248,4.0,4.7,62,0.00,,,0.26,WUHU216HW,2013-02-26 04:23:00,
2013-02-25 20:28:00,35.1,23.4,27.50,SSW,203,3.6,5.8,62,0.00,,,0.26,WUHU216HW,2013-02-26 04:28:00,
2013-02-25 20:33:00,34.9,23.6,27.50,SSW,203,5.1,5.8,63,0.00,,,0.26,WUHU216HW,2013-02-26 04:33:00,
2013-02-25 20:38:00,34.9,23.2,27.51,SW,225,5.1,5.4,62,0.00,,,0.26,WUHU216HW,2013-02-26 04:38:00,
2013-02-25 20:43:00,34.9,23.2,27.51,SW,225,2.9,5.4,62,0.00,,,0.26,WUHU216HW,2013-02-26 04:43:00,
2013-02-25 20:48:00,34.6,23.2,27.51,SW,225,4.3,4.3,63,0.00,,,0.26,WUHU216HW,2013-02-26 04:48:00,
2013-02-25 20:53:00,34.4,22.7,27.51,SSW,203,5.1,5.1,62,0.00,,,0.26,WUHU216HW,2013-02-26 04:53:00,
2013-02-25 20:58:00,34.4,22.7,27.51,WSW,248,3.8,5.1,62,0.00,,,0.26,WUHU216HW,2013-02-26 04:58:00,
2013-02-25 21:00:00,34.6,22.9,27.51,SW,225,2.5,6.0,62,0.00,,,0.26,WUHU216HW,2013-02-26 05:00:00,
2013-02-25 21:05:00,34.2,22.5,27.51,SSW,203,2.5,6.0,62,0.00,,,0.26,WUHU216HW,2013-02-26 05:05:00,
2013-02-25 21:10:00,34.2,22.9,27.51,SSW,203,2.5,4.0,63,0.00,,,0.26,WUHU216HW,2013-02-26 05:10:00,
2013-02-25 21:15:00,34.0,22.7,27.51,SW,225,2.7,4.3,63,0.00,,,0.26,WUHU216HW,2013-02-26 05:15:00,
2013-02-25 21:20:00,33.8,22.9,27.52,SW,225,3.1,4.3,64,0.00,,,0.26,WUHU216HW,2013-02-26 05:20:00,
2013-02-25 21:25:00,33.8,22.5,27.52,WSW,248,3.1,5.4,63,0.00,,,0.26,WUHU216HW,2013-02-26 05:25:00,
2013-02-25 21:30:00,33.8,22.9,27.52,SW,225,3.8,5.4,64,0.00,,,0.26,WUHU216HW,2013-02-26 05:30:00,
2013-02-25 21:35:00,33.8,22.9,27.53,WSW,248,4.3,4.7,64,0.00,,,0.26,WUHU216HW,2013-02-26 05:35:00,
2013-02-25 21:40:00,33.7,23.0,27.53,SW,225,2.5,4.7,65,0.00,,,0.26,WUHU216HW,2013-02-26 05:40:00,
2013-02-25 21:45:00,33.7,23.0,27.53,SW,225,3.8,4.9,65,0.00,,,0.26,WUHU216HW,2013-02-26 05:45:00,
2013-02-25 21:50:00,33.5,23.2,27.53,SSW,203,4.3,4.9,66,0.00,,,0.26,WUHU216HW,2013-02-26 05:50:00,
2013-02-25 21:55:00,33.3,22.8,27.53,SSW,203,4.0,4.3,65,0.00,,,0.26,WUHU216HW,2013-02-26 05:55:00,
2013-02-25 22:00:00,33.3,23.1,27.53,SW,225,1.8,4.0,66,0.00,,,0.26,WUHU216HW,2013-02-26 06:00:00,
2013-02-25 22:05:00,33.1,23.0,27.54,SW,225,1.8,4.0,66,0.00,,,0.26,WUHU216HW,2013-02-26 06:05:00,
2013-02-25 22:10:00,33.1,23.0,27.54,SSW,203,2.5,4.0,66,0.00,,,0.26,WUHU216HW,2013-02-26 06:10:00,
2013-02-25 22:15:00,33.1,23.0,27.54,SSW,203,3.1,3.1,66,0.00,,,0.26,WUHU216HW,2013-02-26 06:15:00,
2013-02-25 22:20:00,32.8,23.0,27.54,SW,225,1.6,3.1,67,0.00,,,0.26,WUHU216HW,2013-02-26 06:20:00,
2013-02-25 22:25:00,32.6,22.8,27.55,SSW,203,1.1,2.5,67,0.00,,,0.26,WUHU216HW,2013-02-26 06:25:00,
2013-02-25 22:30:00,32.4,23.1,27.55,South,180,1.1,2.0,68,0.00,,,0.26,WUHU216HW,2013-02-26 06:30:00,
2013-02-25 22:35:00,32.0,23.0,27.55,South,180,1.1,2.9,69,0.00,,,0.26,WUHU216HW,2013-02-26 06:35:00,
2013-02-25 22:40:00,32.0,22.7,27.56,SW,225,0.4,2.9,68,0.00,,,0.26,WUHU216HW,2013-02-26 06:40:00,
2013-02-25 22:45:00,31.7,23.0,27.56,SSW,203,0.2,1.8,70,0.00,,,0.26,WUHU216HW,2013-02-26 06:45:00,
2013-02-25 22:50:00,31.7,23.0,27.56,SSW,203,0.9,1.3,70,0.00,,,0.26,WUHU216HW,2013-02-26 06:50:00,
2013-02-25 22:55:00,31.7,23.7,27.56,WNW,293,1.3,3.4,72,0.00,,,0.26,WUHU216HW,2013-02-26 06:55:00,
2013-02-25 23:00:00,31.7,24.0,27.56,SW,225,1.3,3.4,73,0.00,,,0.26,WUHU216HW,2013-02-26 07:00:00,
2013-02-25 23:05:00,31.7,24.0,27.57,SSW,203,2.5,2.5,73,0.00,,,0.26,WUHU216HW,2013-02-26 07:05:00,
2013-02-25 23:10:00,31.7,24.0,27.57,SSW,203,2.0,2.5,73,0.00,,,0.26,WUHU216HW,2013-02-26 07:10:00,
2013-02-25 23:15:00,31.7,24.0,27.57,SSW,203,0.9,3.8,73,0.00,,,0.26,WUHU216HW,2013-02-26 07:15:00,
2013-02-25 23:20:00,31.7,24.3,27.57,SW,225,4.7,4.7,74,0.00,,,0.26,WUHU216HW,2013-02-26 07:20:00,
2013-02-25 23:25:00,31.7,24.3,27.57,SSW,203,2.5,4.7,74,0.00,,,0.26,WUHU216HW,2013-02-26 07:25:00,
2013-02-25 23:30:00,31.7,24.7,27.57,South,180,1.3,2.5,75,0.00,,,0.26,WUHU216HW,2013-02-26 07:30:00,
2013-02-25 23:35:00,31.5,24.9,27.58,SSE,158,1.3,3.4,76,0.00,,,0.26,WUHU216HW,2013-02-26 07:35:00,
2013-02-25 23:40:00,31.3,24.7,27.58,SSE,158,1.8,3.4,76,0.00,,,0.26,WUHU216HW,2013-02-26 07:40:00,
2013-02-25 23:45:00,31.3,24.7,27.58,SSW,203,3.4,3.4,76,0.00,,,0.26,WUHU216HW,2013-02-26 07:45:00,
2013-02-25 23:50:00,31.3,24.9,27.58,SSW,203,1.8,3.4,77,0.00,,,0.26,WUHU216HW,2013-02-26 07:50:00,
2013-02-25 23:55:00,31.1,24.8,27.58,SSW,203,3.1,3.4,77,0.00,,,0.26,WUHU216HW,2013-02-26 07:55:00,